Weather History for Rifle, CO

Change the Weather History Date:

Thursday, February 21, 2013

  Actual Average Record
Temperature  
Mean Temperature 31 °F 33 °F  
Max Temperature 37 °F 45 °F 65 °F (1958)
Min Temperature 24 °F 21 °F -17 °F (1955)
Degree Days  
Heating Degree Days 34 32  
Month to date heating degree days 775 745  
Since 1 July heating degree days 4773 4780  
Cooling Degree Days 0 0  
Month to date cooling degree days 0 0  
Year to date cooling degree days 0 0  
Moisture  
Dew Point 18 °F    
Average Humidity 61    
Maximum Humidity 75    
Minimum Humidity 47    
Precipitation  
Precipitation T in 0.03 in 0.19 in (1957)
Month to date precipitation 0.01 0.56  
Year to date precipitation 0.71 1.37  
Sea Level Pressure  
Sea Level Pressure 29.76 in    
Wind  
Wind Speed 14 mph (WNW)    
Max Wind Speed 24 mph    
Max Gust Speed 29 mph    
Visibility 10 miles    
Events      
T = Trace of Precipitation, MM = Missing Value Source: NWS Daily Summary

Daily Weather History Graph

Daily Weather History Graph

Search for Another Location

Airport:

Trip Planner

Search our weather history database for the weather conditions in past years. The results will help you decide how hot, cold, wet, or windy it might be!

Date:

Astronomy

Feb. 21, 2013 Rise Set
Actual Time 6:54 AM MST 5:54 PM MST
Civil Twilight 6:27 AM MST 6:21 PM MST
Nautical Twilight 5:56 AM MST 6:53 PM MST
Astronomical Twilight 5:25 AM MST 7:24 PM MST
Moon 2:12 PM MST (2/21) 4:00 AM MST (2/21)
Length of Visible Light 11h 54m
Length of Day
10h 59m
Waxing Gibbous, 84% of the Moon is Illuminated
Feb 21
Waxing Gibbous
Feb 25
Full
Mar 4
Last Quarter
Mar 11
New
Mar 19
First Quarter

Hourly Weather History & Observations

Time (MST) Temp. Windchill Dew Point Humidity Pressure Visibility Wind Dir Wind Speed Gust Speed Precip Events Conditions
12:53 AM 34.0 °F 24.2 °F 21.9 °F 61% 29.58 in 9.0 mi WSW 15.0 mph 24.2 mph N/A   Overcast
1:53 AM 34.0 °F 24.6 °F 21.9 °F 61% 29.58 in 10.0 mi West 13.8 mph 17.3 mph 0.00 in   Overcast
2:53 AM 32.0 °F 22.1 °F 21.0 °F 64% 29.60 in 10.0 mi WNW 13.8 mph - N/A   Overcast
3:53 AM 32.0 °F 21.2 °F 19.0 °F 59% 29.60 in 10.0 mi WNW 16.1 mph - N/A   Overcast
4:53 AM 30.9 °F 18.7 °F 18.0 °F 59% 29.63 in 10.0 mi WNW 19.6 mph - N/A   Overcast
5:53 AM 30.9 °F 19.8 °F 18.0 °F 59% 29.65 in 10.0 mi WNW 16.1 mph - N/A   Overcast
6:53 AM 30.0 °F 17.5 °F 18.0 °F 61% 29.69 in 10.0 mi WNW 19.6 mph - N/A   Overcast
7:53 AM 30.0 °F 18.3 °F 18.0 °F 61% 29.73 in 10.0 mi WNW 17.3 mph - N/A   Overcast
8:53 AM 30.0 °F 18.3 °F 17.1 °F 59% 29.76 in 10.0 mi WNW 17.3 mph - N/A   Overcast
9:53 AM 30.9 °F 20.7 °F 17.1 °F 57% 29.77 in 10.0 mi WNW 13.8 mph - N/A   Overcast
11:53 AM 35.1 °F 25.5 °F 18.0 °F 50% 29.77 in 10.0 mi WNW 15.0 mph - N/A   Overcast
12:53 PM 35.1 °F 22.7 °F 18.0 °F 50% 29.77 in 10.0 mi WNW 25.3 mph 28.8 mph N/A   Overcast
1:53 PM 36.0 °F 27.5 °F 18.0 °F 48% 29.76 in 10.0 mi WNW 12.7 mph - N/A   Overcast
2:53 PM 36.0 °F 26.7 °F 18.0 °F 48% 29.78 in 10.0 mi NW 15.0 mph - N/A   Overcast
3:53 PM 36.0 °F 26.3 °F 19.0 °F 50% 29.79 in 10.0 mi NW 16.1 mph 24.2 mph N/A   Overcast
4:53 PM 34.0 °F 23.0 °F 18.0 °F 52% 29.81 in 10.0 mi WNW 18.4 mph 26.5 mph N/A   Overcast
5:53 PM 32.0 °F 20.8 °F 17.1 °F 54% 29.84 in 10.0 mi WNW 17.3 mph - N/A   Overcast
6:53 PM 30.9 °F 21.7 °F 17.1 °F 57% 29.87 in 10.0 mi WNW 11.5 mph - N/A   Overcast
7:53 PM 30.9 °F 23.5 °F 17.1 °F 57% 29.89 in 10.0 mi West 8.1 mph - N/A   Overcast
8:53 PM 30.0 °F 26.5 °F 17.1 °F 59% 29.91 in 10.0 mi SW 3.5 mph - N/A   Overcast
9:53 PM 28.0 °F 22.8 °F 18.0 °F 66% 29.93 in 10.0 mi SE 4.6 mph - N/A   Overcast
10:53 PM 27.0 °F - 19.9 °F 75% 29.94 in 10.0 mi Calm Calm - N/A   Overcast
11:53 PM 25.0 °F 15.5 °F 18.0 °F 75% 29.94 in 10.0 mi South 9.2 mph - N/A   Overcast